Regional Weather Roundup
Issued by NWS

Home | Current Version | Previous Version | Text Only | Print | Product List | Glossary Off
Versions: 1 2 3 4 5 6 7 8 9 10 11 12 13 14 15 16 17 18 19 20 21 22 23 24 25 26 27 28

000
ASUS45 KTFX 230410
RWRMT
MONTANA REGIONAL WEATHER ROUNDUP
NATIONAL WEATHER SERVICE GREAT FALLS MT
1000 PM MDT FRI JUL 22 2016

NOTE: "FAIR" INDICATES FEW OR NO CLOUDS BELOW 12000 FEET WITH NO
SIGNIFICANT WEATHER AND/OR OBSTRUCTIONS TO VISIBILITY.

MTZ001>007-043-230500-
WEST OF THE DIVIDE

CITY           SKY/WX    TMP DP  RH WIND       PRES   REMARKS
KALISPELL      MOCLDY    62  47  57 S7        30.08R
MISSOULA       CLEAR     68  46  45 W9        30.12R
BUTTE          CLEAR     68  41  37 N10G20    30.14R
MULLAN PASS    MOCLDY    47  46  97 NW7       30.23S
ANACONDA         N/A     66  43  42 W3        30.13R
DEER LODGE       N/A     64  45  48 NW14G22   30.14R
EUREKA           N/A     64  45  48 S7        30.07S
HAMILTON         N/A     70  45  40 CALM      30.13R
LIBBY            N/A     57  54  88 CALM      30.10R
PLAINS           N/A     59  52  77 CALM      30.14R
RONAN            N/A     63  47  55 NW1       30.17R
$$

MTZ008-052>055-230500-
SOUTHWEST MONTANA

CITY           SKY/WX    TMP DP  RH WIND       PRES   REMARKS
BOZEMAN        CLEAR     72  40  31 W9        30.03R
DILLON         CLEAR     66  42  41 NW14      30.07R
W YELLOWSTONE  CLEAR     72   9   8 SW13G23   30.17R
ENNIS          CLEAR     72  37  28 N12       30.11R
THREE FORKS      N/A     75 -17   2 NW6       30.02R
TWIN BRIDGES     N/A     75  40  28 W8        30.05R
$$

MTZ009-010-012-014-046-048-049-054-230500-
EAST SLOPES AND CENTRAL MONTANA

CITY           SKY/WX    TMP DP  RH WIND       PRES   REMARKS
CUT BANK       CLEAR     61  40  45 W23       29.97F
GREAT FALLS    PTCLDY    67  39  35 N8        30.00R
MALMSTROM AFB  PTCLDY    70  42  36 N15       29.99R
HELENA         CLEAR     74  42  31 NW15G23   30.04R
CHOTEAU          N/A     66  37  34 NW7G16    30.03R
CONRAD           N/A     65  45  48 W13       30.02R
$$

MTZ011-013-016-021-045-047-050-051-230500-
NORTH CENTRAL MONTANA

CITY           SKY/WX    TMP DP  RH WIND       PRES   REMARKS
HAVRE            N/A    N/A N/A N/A MISG      29.93R
LEWISTOWN      CLEAR     72  45  37 N16G26    30.01R
N BAR RANCH      N/A     68  50  52 NW16G26   30.00R
CHINOOK          N/A     70  55  60 W9        29.90R
$$

MTZ017>020-022>027-061-062-230500-
NORTHEAST MONTANA

CITY           SKY/WX    TMP DP  RH WIND       PRES   REMARKS
GLASGOW        CLOUDY    78  60  53 E8        29.73F
JORDAN           N/A     77  46  33 W3        29.76R
SIDNEY         LGT RAIN  73  64  73 S7        29.87R
WOLF POINT     CLOUDY    82  64  54 E16       29.73F
PLENTYWOOD       N/A     72  63  73 E12       29.83S
SCOBEY           N/A     75  61  62 E18       29.80F
$$

MTZ028>42-056>058-230500-
SOUTHCENTRAL AND SOUTHEAST MONTANA

CITY           SKY/WX    TMP DP  RH WIND       PRES   REMARKS
BAKER          TSTM      71  64  78 SE17G29   29.93R
BILLINGS       PTCLDY    83  43  24 N6        29.80R
LIVINGSTON     CLOUDY    80  37  21 NW10G23   29.99R
MILES CITY     CLEAR     84  51  31 N12       29.76R
EKALAKA          N/A     78  56  46 E16       29.89R
FORSYTH          N/A     82  46  28 CALM      29.77R
LAUREL           N/A     82  42  24 SW3       29.81S
ROUNDUP          N/A     80  44  27 NW9       29.79R
$$

REGIONAL REPORTS...DAKOTAS

CITY           SKY/WX    TMP DP  RH WIND       PRES   REMARKS
WILLISTON      MOCLDY    74  67  78 E7        29.83F
MINOT          CLOUDY    77  64  64 E14       29.91F
DICKINSON      LGT RAIN  66  62  87 E23G39    29.90F
BEACH          CLOUDY    70  66  88 SE22      29.89F
CROSBY           N/A     70  66  88 E12       29.91R
WATFORD CITY   MOCLDY    72  64  78 SE17G29   29.85F
BISMARCK       CLOUDY    70  65  84 SE18      30.02F
GRAND FORKS    CLOUDY    75  67  76 E6        29.98S
FARGO          CLOUDY    75  67  76 NE6       29.99R
BUFFALO SD       N/A     73  64  73 E23G31    29.85R
RAPID CITY     CLEAR     74  58  57 S7        29.95R
$$

REGIONAL REPORTS...WYOMING/IDAHO/WASHINGTON

CITY           SKY/WX    TMP DP  RH WIND       PRES   REMARKS
GILLETTE       CLOUDY    79  57  46 S14       29.96F
SHERIDAN       CLOUDY    78  47  33 SW7       29.88S
BUFFALO WY     CLOUDY    77  43  29 S10       30.00R
CODY           CLEAR     82  30  15 SW8       30.02R
YELLOWSTONE LA   N/A     59  25  27 CALM      30.30R
IDAHO FALLS    CLEAR     72  27  18 SW10      30.08R
SALMON         CLEAR     75  39  27 N9        30.04R
BOISE          CLEAR     79  33  19 N6        30.03S
SPOKANE        PTCLDY    64  56  75 NE5       30.13R
$$

REGIONAL REPORTS...ALBERTA

CITY           SKY/WX    TMP DP  RH WIND       PRES   REMARKS
EDMONTON       PTCLDY    64  52  63 N5        29.79F
CALGARY        MOCLDY    64  50  59 CALM      29.85R
LETHBRIDGE     PTCLDY    63  43  48 W18G28    29.91F
MEDICINE HAT   CLEAR     61  54  77 SW5       29.91R
WATERTON GATE    N/A     61  39  44 W15G31      N/A
MILK RIVER       N/A     64  43  45 W14G21      N/A
ONEFOUR          N/A     61  50  67 NW9         N/A
$$

REGIONAL REPORTS...SASKATCHEWAN

CITY           SKY/WX    TMP DP  RH WIND       PRES   REMARKS
SWIFT CURRENT  MOCLDY    66  61  82 SE20G32   29.78R THUNDER
REGINA         CLOUDY    72  61  68 SE21G28   29.85S
SASKATOON      LGT RAIN  68  63  83 S9G20     29.87F
CYPRESS HILLS    N/A     55  52  88 NW8         N/A
VAL MARIE        N/A     73  50  43 W14         N/A
ROCKGLEN         N/A     70  63  78 SE15G21     N/A
ASSINIBOIA       N/A     66  63  88 S6          N/A
$$




USA.gov is the U.S. government's official web portal to all federal, state and local government web resources and services.